Location: Morisset
(33.1080°S, 151.4871°E)
Time: 08:51:30
(UTC+00:00)

SL-4 R/B - Pass Details

Date: 29 October 2020
Orbit: 427 x 665 km, 51.6° (Epoch: 27 November)

Event Time Altitude Azimuth Distance (km) Brightness Sun altitude
Exits shadow 16:35:58 21° 215° (SW) 1,502 4.2 -26.7°
Maximum altitude 16:36:16 21° 209° (SSW) 1,497 4.3 -26.7°
Drops below altitude 10° 16:39:57 10° 160° (SSE) 2,092 5.7 -26.1°
Sets 16:42:48 0° 144° (SE) 2,984 7.0 -25.6°
